Hourly Data Report for October 20, 2013

All times are specified in Local Standard Time (LST). Add 1 hour to adjust for Daylight Saving Time where and when it is observed.

ST LEONARD CS
NEW BRUNSWICK

47°09'28.050" N
67°49'55.014" W
245.00 m
810I001
71019
WIY

Download Data

Hourly Data (October 2013)
Hourly Data Report for October 20, 2013
Temp Definition
°C
Dew Point Temp Definition
°C
Rel Hum Definition
%
Wind Dir Definition
10's deg

Wind Spd Definition
km/h
Visibility Definition
km
Stn Press Definition
kPa
Hmdx Definition


Wind Chill Definition


Weather Definition


TIME
00:00 7.2 5.1 86 14 9   97.84     LegendNANA
01:00 7.9 5.4 84 14 7   97.79     LegendNANA
02:00 8.2 5.7 84 15 11   97.79     LegendNANA
03:00 7.0 6.2 95 9 6   97.71     LegendNANA
04:00 7.4 5.8 90 9 11   97.64     LegendNANA
05:00 7.1 5.4 89 9 7   97.55     LegendNANA
06:00 7.1 5.5 90 12 11   97.51     LegendNANA
07:00 7.0 5.7 91 12 9   97.47     LegendNANA
08:00 7.2 6.5 95 12 11   97.47     LegendNANA
09:00 7.5 6.9 96 12 17   97.41     LegendNANA
10:00 7.9 7.4 97 13 17   97.36     LegendNANA
11:00 8.5 7.8 95 15 19   97.33     LegendNANA
12:00 6.9 6.0 94 25 17   97.34     LegendNANA
13:00 7.4 6.4 93 23 11   97.33     LegendNANA
14:00 8.7 7.1 90 23 11   97.33     LegendNANA
15:00 9.0 6.5 84 24 15   97.38     LegendNANA
16:00 9.1 4.8 74 24 11   97.42     LegendNANA
17:00 9.3 3.2 66 26 17   97.48     LegendNANA
18:00 7.8 1.5 64 24 13   97.54     LegendNANA
19:00 6.8 1.6 69 24 11   97.59     LegendNANA
20:00 5.9 1.6 74 24 9   97.64     LegendNANA
21:00 6.3 1.6 72 25 20   97.69     LegendNANA
22:00 5.7 1.5 74 25 17   97.74     LegendNANA
23:00 5.5 1.2 74 25 13   97.78     LegendNANA

Notes on Data Quality.

Legend

  • E = Estimated
  • M = Missing
  • NA = Not Available
  • ‡ = Partner data that is not subject to review by the National Climate Archives
Date modified: